This is the latest recevied weather packets stored in our database for station/object K7ZQU-7. If no packets are shown the sender has not sent any weather packets the latest 10 day(s).
| Time | Temp. | Humidity | Pressure | Rain* | Wind** | Luminosity | Snow |
|---|---|---|---|---|---|---|---|
| 1777501786 | 12.78° C | 34% | 1019.6 hPa | 0 mm | 2.24 m/s, 111° | - | - |
| 1777501487 | 13.33° C | 35% | 1019.6 hPa | 0 mm | 1.79 m/s, 246° | - | - |
| 1777501188 | 12.78° C | 36% | 1019.6 hPa | 0 mm | 1.79 m/s, 58° | - | - |
| 1777500889 | 12.78° C | 34% | 1019.6 hPa | 0 mm | 1.79 m/s, 105° | - | - |
| 1777500591 | 12.78° C | 34% | 1019.6 hPa | 0 mm | 1.79 m/s, 145° | - | - |
| 1777500289 | 12.78° C | 34% | 1019.7 hPa | 0 mm | 0.89 m/s, 76° | - | - |
| 1777500065 | 12.78° C | 34% | 1019.7 hPa | 0 mm | 1.34 m/s, 60° | - | - |
| 1777499990 | 12.78° C | 34% | 1019.7 hPa | 0 mm | 1.34 m/s, 60° | - | - |
| 1777499691 | 12.78° C | 35% | 1019.6 hPa | 0 mm | 3.13 m/s, 124° | - | - |
| 1777499392 | 12.78° C | 35% | 1019.7 hPa | 0 mm | 1.34 m/s, 25° | - | - |
| 1777499093 | 12.78° C | 34% | 1019.7 hPa | 0 mm | 0 m/s | - | - |
| 1777498791 | 12.78° C | 34% | 1019.8 hPa | 0 mm | 0.89 m/s, 13° | - | - |
| 1777498193 | 12.22° C | 35% | 1019.7 hPa | 0 mm | 2.24 m/s, 113° | - | - |
| 1777497894 | 12.22° C | 35% | 1019.8 hPa | 0 mm | 1.79 m/s, 224° | - | - |
| 1777497595 | 12.22° C | 35% | 1019.8 hPa | 0 mm | 1.79 m/s, 203° | - | - |
| 1777497294 | 12.22° C | 34% | 1019.7 hPa | 0 mm | 1.79 m/s, 122° | - | - |
| 1777496995 | 12.22° C | 36% | 1019.7 hPa | 0 mm | 1.79 m/s, 322° | - | - |
| 1777496695 | 12.22° C | 38% | 1019.8 hPa | 0 mm | 1.79 m/s, 253° | - | - |
| 1777496098 | 11.67° C | 39% | 1019.7 hPa | 0 mm | 1.34 m/s, 184° | - | - |
| 1777495796 | 11.67° C | 40% | 1019.7 hPa | 0 mm | 2.24 m/s, 115° | - | - |
| 1777495497 | 11.67° C | 39% | 1019.8 hPa | 0 mm | 1.79 m/s, 127° | - | - |
| 1777495198 | 11.67° C | 41% | 1019.6 hPa | 0 mm | 0.45 m/s, 174° | - | - |
| 1777494899 | 11.67° C | 42% | 1019.7 hPa | 0 mm | 1.34 m/s, 107° | - | - |
| 1777494600 | 11.11° C | 41% | 1019.6 hPa | 0 mm | 1.79 m/s, 197° | - | - |
| 1777494298 | 11.11° C | 43% | 1019.5 hPa | 0 mm | 1.34 m/s, 122° | - | - |
* Rain latest hour (hover to see other rain measurements)
** Current wind speed in m/s (hover to see current wind gust speed)